Showing default

OPS 7218 (TRANSIT 16), 2807

Orbit data source: Space-Track

OPS 7218 (TRANSIT 16), 2807 is a payload satellite owned by USN NAVAIR (US) in LEO that was launched on Thu, 18 May 1967 UTC via an SCOUT A launch vehicle from the Air Force Western Test Range (AFWTR). Payload-class satellites include a variety of spacecraft equipped with specific instruments for various scientific and technological missions. These include communications satellites like Starlink; space stations such as the ISS; scientific satellites like the Hubble; Earth observation satellites from companies like Planet Labs, Umbra, and HawkEye 360; GPS; miniature CubeSats for education and research; and military/defense satellites.

Loading next visibility...
Identifier
2807, 1967-048A
Orbit
LEO
Country
Flag of USUS
Related business
Manufacturer
APL
Mission
Spacecraft
Bus & Motor
TRANSIT 5, Unknown motor
Mass
~50 kg wet, ~50 kg dry
Launch date (UTC)
1967-05-18 (59 years ago)
Launch vehicle
SCOUT A
Launch site
Air Force Western Test Range (AFWTR)
Object type
Payload
Rocket body
Debris
Shape & HBR
Unknown
Radar Cross Section
Large (>1 m²)

Expand to show TLE details & history
Last TLE update: 7 hours ago

TLE from 7 hours ago
0 OPS 7218 (TRANSIT 16)
1  2807U 67048A   26036.85824564  .00000170  00000-0  24828-3 0  9996
2  2807  89.6786 352.1985 0019100 321.8569  66.5714 13.50736529890200
Epoch: 2026-02-05T20:35Z
TLE epoch observation values (Epoch: 2026-02-05T20:35:52.423Z)
Latitude
28.67096°
Longitude
-92.59953°
Altitude
1,067.518 km
Speed
7.323 km/s
True Right ascension
23h 29m 29s
True Declination
28° 31' 57"
Sunlit
Object was in daylight at epoch
Visualization orbit readout
Latitude
Unknown
Longitude
Unknown
Altitude
Unknown
Speed
Unknown
Apparent Right ascension
Unknown
Apparent Declination
Unknown
Sunlit
N/A
Visualization observer readout
Local Sidereal Time
05:55:36
Azimuth
Unknown
Elevation
Unknown
Doppler factor
Unknown
Orbital elements
Apogee altitude
1,080.818 km
Perigee altitude
1,052.379 km
Semi-major axis
7,444.736 km
Eccentricity
0.00191
Inclination
89.6786°
RAAN
352.1985°
Arg. of periapsis
321.8569°
True anomaly
66.77242°
Mean anomaly
66.5714°
Eccentric anomaly
66.67189°
Mean motion
3.37885 °/min
Orbital period
106.55 mins
BSTAR
0.00024828
Loading maneuver chart data...
Computing Atmospheric mass density...
Loading historical data...
Loading historical data...
Loading historical data...
Loading historical data...
Loading historical data...
Loading historical data...
Loading historical data...

Documentation

Showing up to 5 results
|